+ View the NASA Portal
+ Center for Near-Earth Object Studies
JPL Small-Body Database Browser
Search:
[
help
]
150095 (1235 T-2)
Classification:
Main-belt Asteroid
SPK-ID:
2150095
[
Ephemeris
|
Orbit Diagram
|
Orbital Elements
|
Mission Design
|
Physical Parameters
|
Discovery Circumstances
|
Close-Approach Data
]
[ show orbit diagram ]
Orbital Elements at Epoch 2459200.5 (2020-Dec-17.0) TDB
Reference:
JPL 12
(heliocentric ecliptic J2000)
Element
Value
Uncertainty (1-sigma)
Units
e
.1667959177348154
8.0571e-08
a
2.343936119171629
1.3871e-08
au
q
1.952977143062615
1.9058e-07
au
i
2.691113053530173
7.9298e-06
deg
node
353.9629301460628
0.00011463
deg
peri
18.5537945785106
0.00011664
deg
M
51.58855330414591
1.991e-05
deg
t
p
2459012.668713830042
(2020-Jun-12.16871383)
7.1814e-05
TDB
period
1310.741602357569
3.59
1.1635e-05
3.185e-08
d
yr
n
.2746536764778695
2.438e-09
deg/d
Q
2.734895095280642
1.6185e-08
au
Orbit Determination Parameters
# obs. used (total)
264
data-arc span
17272 days (47.29 yr)
first obs. used
1973-09-24
last obs. used
2021-01-07
planetary ephem.
DE441
SB-pert. ephem.
SB441-N16
condition code
0
norm. resid. RMS
.58115
source
ORB
producer
Otto Matic
solution date
2021-Apr-13 19:17:05
Additional Information
Earth MOID
= .951881 au
Jupiter MOID
= 2.7329 au
T_jup
= 3.542
[ show covariance matrix ]
[
Ephemeris
|
Orbit Diagram
|
Orbital Elements
|
Mission Design
|
Physical Parameters
|
Discovery Circumstances
|
Close-Approach Data
]
Physical Parameter Table
Parameter
Symbol
Value
Units
Sigma
Reference
Notes
absolute magnitude
H
17.3
n/a
MPO436756
150095 (1235 T-2)
Discovered 1973-Sep-29 by van Houten, C. J., van Houten-Groeneveld, I., Gehrels, T. at Palomar
Reference:
20070202/Numbers.arc
Last Updated:
2007-02-06
[ show close-approach data ]
Alternate Designations
1235 T-2
= 2000 EJ187 = 2002 XZ109
[
Ephemeris
|
Orbit Diagram
|
Orbital Elements
|
Mission Design
|
Physical Parameters
|
Discovery Circumstances
|
Close-Approach Data
]
2021-Apr-17 16:54 UT
(server date/time)
Site Manager:
Ryan S. Park
Webmaster
:
Alan B. Chamberlin